Mount Holly, NJ

3:19 PM EST on January 19, 2018 (GMT -0500)
South Jersey Regional

Weather History for KVAY - April, 2013

Change the Weather History Date:

Thursday, April 25, 2013

  Actual Average (KPNE) Record (KPNE)
Temperature  
Mean Temperature 54 °F -  
Max Temperature 63 °F 65 °F 84 °F (2011)
Min Temperature 43 °F 42 °F 36 °F (1999)
Degree Days  
Heating Degree Days 10    
Growing Degree Days 4 (Base 50)    
Moisture  
Dew Point 33 °F    
Average Humidity 47    
Maximum Humidity 78    
Minimum Humidity 21    
Precipitation  
Precipitation 0.00 in - - ()
Sea Level Pressure  
Sea Level Pressure 30.15 in    
Wind  
Wind Speed 8 mph (WNW)    
Max Wind Speed 21 mph    
Max Gust Speed 29 mph    
Visibility 10 miles    
Events Rain    
Averages and records for this station are not official NWS values.
T = Trace of Precipitation, MM = Missing Value Source: NWS Daily Summary

Daily Weather History Graph

Daily Weather History Graph

Search for Another Location

Airport or City:

Trip Planner

Search our weather history database for the weather conditions in past years. The results will help you decide how hot, cold, wet, or windy it might be!

Date:

Astronomy

Apr. 25, 2013 Rise Set
Actual Time 6:07 AM EDT 7:48 PM EDT
Civil Twilight 5:38 AM EDT 8:17 PM EDT
Nautical Twilight 5:03 AM EDT 8:51 PM EDT
Astronomical Twilight 4:26 AM EDT 9:29 PM EDT
Moon 7:58 PM EDT (4/25) 5:48 AM EDT (4/25)
Length of Visible Light 14h 38m
Length of Day
13h 41m
Full, 100% of the Moon is Illuminated
Apr 25
Full
Apr 25
Full
May 2
Last Quarter
May 9
New
May 18
First Quarter

Hourly Weather History & Observations

Time (EDT) Temp. Windchill Dew Point Humidity Pressure Visibility Wind Dir Wind Speed Gust Speed Precip Events Conditions
12:54 AM 60.1 °F - 53.1 °F 78% 29.91 in 10.0 mi Calm Calm - N/A   Overcast
1:11 AM 60.8 °F - 53.6 °F 77% 29.93 in 10.0 mi Variable 4.6 mph - 0.00 in   Overcast
1:22 AM 62.6 °F - 51.8 °F 68% 29.94 in 10.0 mi WNW 12.7 mph 23.0 mph 0.00 in   Overcast
1:54 AM 59.0 °F - 42.1 °F 53% 29.97 in 10.0 mi West 17.3 mph 27.6 mph 0.00 in   Overcast
2:54 AM 53.1 °F - 34.0 °F 48% 30.02 in 10.0 mi West 20.7 mph 28.8 mph N/A   Overcast
3:54 AM 50.0 °F - 30.9 °F 48% 30.06 in 10.0 mi WNW 10.4 mph 19.6 mph N/A   Overcast
4:54 AM 46.9 °F - 34.0 °F 61% 30.09 in 10.0 mi NW 11.5 mph 19.6 mph 0.00 in Rain Light Rain
5:54 AM 46.9 °F - 30.9 °F 54% 30.13 in 10.0 mi NW 15.0 mph 25.3 mph 0.00 in   Overcast
6:54 AM 46.0 °F 41.4 °F 30.0 °F 54% 30.17 in 10.0 mi NW 9.2 mph 20.7 mph N/A   Partly Cloudy
7:54 AM 46.9 °F - 30.0 °F 52% 30.21 in 10.0 mi WNW 11.5 mph 20.7 mph N/A   Clear
8:54 AM 48.0 °F - 30.0 °F 50% 30.21 in 10.0 mi NNW 13.8 mph 24.2 mph N/A   Clear
9:54 AM 50.0 °F - 28.9 °F 44% 30.22 in 10.0 mi North 15.0 mph - N/A   Clear
10:54 AM 53.1 °F - 28.9 °F 40% 30.23 in 10.0 mi NW 10.4 mph 19.6 mph N/A   Clear
11:54 AM 55.9 °F - 32.0 °F 40% 30.23 in 10.0 mi Variable 6.9 mph - N/A   Clear
12:54 PM 57.0 °F - 30.9 °F 37% 30.21 in 10.0 mi Variable 5.8 mph 16.1 mph N/A   Clear
1:54 PM 59.0 °F - 30.9 °F 35% 30.20 in 10.0 mi NW 8.1 mph - N/A   Clear
2:54 PM 61.0 °F - 30.0 °F 31% 30.19 in 10.0 mi NNW 9.2 mph 16.1 mph N/A   Clear
3:54 PM 62.1 °F - 28.9 °F 29% 30.19 in 10.0 mi West 8.1 mph - N/A   Clear
4:54 PM 62.1 °F - 26.1 °F 25% 30.19 in 10.0 mi West 3.5 mph - N/A   Clear
5:54 PM 63.0 °F - 26.1 °F 25% 30.19 in 10.0 mi West 3.5 mph - N/A   Clear
6:54 PM 62.1 °F - 21.9 °F 21% 30.20 in 10.0 mi Calm Calm - N/A   Clear
7:54 PM 55.9 °F - 30.0 °F 37% 30.21 in 10.0 mi Calm Calm - N/A   Clear
8:54 PM 51.1 °F - 30.9 °F 46% 30.24 in 10.0 mi Calm Calm - N/A   Clear
9:54 PM 50.0 °F - 30.0 °F 46% 30.27 in 10.0 mi Calm Calm - N/A   Clear
10:54 PM 46.0 °F - 32.0 °F 58% 30.27 in 10.0 mi Calm Calm - N/A   Clear
11:54 PM 43.0 °F - 34.0 °F 71% 30.28 in 10.0 mi Calm Calm - N/A   Clear